TimeEST,TemperatureF,Dew PointF,Humidity,Sea Level PressureIn,VisibilityMPH,Wind Direction,Wind SpeedMPH,Gust SpeedMPH,PrecipitationIn,Events,Conditions,WindDirDegrees,DateUTC
12:53 AM,26.1,19.9,78,30.11,10.0,South,4.6,-,N/A,,Clear,190,2012-11-25 05:53:00
1:53 AM,27.0,21.0,78,30.09,10.0,South,4.6,-,N/A,,Overcast,190,2012-11-25 06:53:00
2:53 AM,28.0,19.9,72,30.09,10.0,SSW,4.6,-,N/A,,Partly Cloudy,200,2012-11-25 07:53:00
3:53 AM,27.0,19.9,75,30.08,10.0,SSW,5.8,-,N/A,,Clear,210,2012-11-25 08:53:00
4:53 AM,27.0,21.0,78,30.06,10.0,South,5.8,-,N/A,,Partly Cloudy,190,2012-11-25 09:53:00
5:53 AM,27.0,21.0,78,30.05,10.0,South,9.2,-,N/A,,Scattered Clouds,190,2012-11-25 10:53:00
6:53 AM,28.0,21.9,78,30.02,10.0,South,10.4,-,N/A,,Clear,190,2012-11-25 11:53:00
7:53 AM,28.9,21.9,75,30.00,10.0,SSW,12.7,-,N/A,,Mostly Cloudy,200,2012-11-25 12:53:00
8:53 AM,30.0,21.9,72,30.00,10.0,SSW,11.5,19.6,N/A,,Mostly Cloudy,200,2012-11-25 13:53:00
9:53 AM,32.0,23.0,69,30.00,10.0,SSW,8.1,-,N/A,,Clear,210,2012-11-25 14:53:00
10:53 AM,34.0,23.0,64,29.99,10.0,SW,9.2,17.3,N/A,,Clear,220,2012-11-25 15:53:00
11:53 AM,39.0,23.0,53,29.95,10.0,SW,12.7,20.7,N/A,,Clear,220,2012-11-25 16:53:00
12:53 PM,41.0,24.1,51,29.92,10.0,WSW,13.8,20.7,N/A,,Clear,240,2012-11-25 17:53:00
1:53 PM,41.0,24.1,51,29.91,10.0,SW,11.5,21.9,N/A,,Clear,220,2012-11-25 18:53:00
2:53 PM,44.1,25.0,47,29.91,10.0,SSW,9.2,-,N/A,,Clear,210,2012-11-25 19:53:00
3:53 PM,45.0,25.0,46,29.92,10.0,WSW,9.2,-,N/A,,Clear,240,2012-11-25 20:53:00
4:53 PM,44.1,25.0,47,29.94,10.0,West,4.6,-,N/A,,Partly Cloudy,260,2012-11-25 21:53:00
5:53 PM,43.0,26.1,51,29.94,10.0,SW,5.8,-,N/A,,Clear,230,2012-11-25 22:53:00
6:53 PM,39.0,27.0,62,29.96,10.0,SSW,4.6,-,N/A,,Clear,200,2012-11-25 23:53:00
7:53 PM,42.1,26.1,53,29.99,10.0,Calm,Calm,-,N/A,,Clear,0,2012-11-26 00:53:00
8:53 PM,42.1,26.1,53,30.00,10.0,Calm,Calm,-,N/A,,Scattered Clouds,0,2012-11-26 01:53:00
9:53 PM,39.9,27.0,60,30.00,10.0,Calm,Calm,-,N/A,,Mostly Cloudy,0,2012-11-26 02:53:00
10:53 PM,41.0,28.0,60,30.02,10.0,Calm,Calm,-,N/A,,Overcast,0,2012-11-26 03:53:00
11:53 PM,42.1,28.0,58,30.03,10.0,Calm,Calm,-,N/A,,Partly Cloudy,0,2012-11-26 04:53:00